Scottsboro, AL

12:58 PM CDT on June 25, 2017 (GMT -0500)
Scottsboro

Weather History for K4A6 - February, 2013

Change the Weather History Date:

Tuesday, February 26, 2013

  Actual Average (KHSV) Record (KHSV)
Temperature  
Mean Temperature 44 °F -  
Max Temperature 48 °F 56 °F 78 °F (1951)
Min Temperature 41 °F 34 °F 11 °F (1967)
Degree Days  
Heating Degree Days 20    
Moisture  
Dew Point 39 °F    
Average Humidity 78    
Maximum Humidity 93    
Minimum Humidity 62    
Precipitation  
Precipitation 0.17 in - - ()
Sea Level Pressure  
Sea Level Pressure 29.62 in    
Wind  
Wind Speed 9 mph (SSW)    
Max Wind Speed 18 mph    
Max Gust Speed 32 mph    
Visibility 4 miles    
Events Rain , Thunderstorm    
Averages and records for this station are not official NWS values.
T = Trace of Precipitation, MM = Missing Value Source: NWS Daily Summary

Daily Weather History Graph

Daily Weather History Graph

Search for Another Location

Airport or City:

Trip Planner

Search our weather history database for the weather conditions in past years. The results will help you decide how hot, cold, wet, or windy it might be!

Date:

Astronomy

Feb. 26, 2013 Rise Set
Actual Time 6:16 AM CST 5:37 PM CST
Civil Twilight 5:51 AM CST 6:02 PM CST
Nautical Twilight 5:22 AM CST 6:32 PM CST
Astronomical Twilight 4:52 AM CST 7:01 PM CST
Moon 6:48 PM CST (2/26) 6:23 AM CST (2/26)
Length of Visible Light 12h 11m
Length of Day
11h 20m
Full, 99% of the Moon is Illuminated
Feb 26
Full
Mar 4
Last Quarter
Mar 11
New
Mar 19
First Quarter
Mar 27
Full

Hourly Weather History & Observations

Time (CST) Temp. Windchill Dew Point Humidity Pressure Visibility Wind Dir Wind Speed Gust Speed Precip Events Conditions
12:15 AM 46.4 °F 45.2 °F 41.0 °F 81% 29.54 in 3.0 mi NNE 3.5 mph 32.2 mph N/A Rain Light Rain
12:35 AM 46.4 °F 42.4 °F 41.0 °F 81% 29.60 in 5.0 mi East 8.1 mph 24.2 mph N/A   Haze
12:55 AM 46.4 °F 44.3 °F 41.0 °F 81% 29.60 in 2.5 mi ENE 4.6 mph 19.6 mph 0.01 in Rain Light Rain
1:15 AM 46.4 °F 42.9 °F 42.8 °F 87% 29.59 in 2.0 mi NE 6.9 mph - 0.04 in Rain Light Rain
1:35 AM 46.4 °F 41.9 °F 42.8 °F 87% 29.58 in 3.0 mi ENE 9.2 mph 24.2 mph 0.06 in Rain Light Rain
1:55 AM 46.4 °F 41.9 °F 42.8 °F 87% 29.58 in 2.5 mi SE 9.2 mph 21.9 mph 0.08 in Rain Light Rain
2:15 AM 46.4 °F 42.9 °F 42.8 °F 87% 29.58 in 3.0 mi ENE 6.9 mph - 0.01 in Rain Light Rain
2:35 AM 44.6 °F 43.1 °F 41.0 °F 87% 29.58 in 2.5 mi South 3.5 mph - 0.02 in Rain Light Rain
2:55 AM 44.6 °F 40.2 °F 41.0 °F 87% 29.57 in 2.0 mi East 8.1 mph - 0.05 in Rain Light Rain
3:15 AM 44.6 °F 41.4 °F 41.0 °F 87% 29.56 in 2.0 mi NE 5.8 mph - 0.01 in Rain Light Rain
3:35 AM 46.4 °F 44.3 °F 41.0 °F 81% 29.55 in 4.0 mi NE 4.6 mph - 0.01 in   Overcast
3:55 AM 46.4 °F 41.9 °F 41.0 °F 81% 29.53 in 5.0 mi SE 9.2 mph 17.3 mph 0.01 in   Overcast
4:15 AM 46.4 °F 42.9 °F 41.0 °F 81% 29.53 in 6.0 mi SE 6.9 mph - N/A   Haze
4:35 AM 46.4 °F 43.5 °F 41.0 °F 81% 29.54 in 6.0 mi South 5.8 mph 18.4 mph N/A   Haze
4:55 AM 46.4 °F 42.9 °F 41.0 °F 81% 29.53 in 6.0 mi South 6.9 mph 20.7 mph N/A   Haze
5:15 AM 46.4 °F 41.5 °F 41.0 °F 81% 29.52 in 6.0 mi SSE 10.4 mph 17.3 mph N/A   Overcast
5:35 AM 46.4 °F 42.4 °F 41.0 °F 81% 29.53 in 7.0 mi South 8.1 mph 16.1 mph N/A   Overcast
5:55 AM 46.4 °F 40.7 °F 41.0 °F 81% 29.52 in 5.0 mi South 12.7 mph 19.6 mph N/A   Haze
6:15 AM 44.6 °F 41.4 °F 41.0 °F 87% 29.52 in 5.0 mi SSE 5.8 mph 16.1 mph N/A   Overcast
6:35 AM 44.6 °F 40.7 °F 41.0 °F 87% 29.52 in 5.0 mi SE 6.9 mph - N/A   Overcast
6:55 AM 44.6 °F 38.8 °F 41.0 °F 87% 29.52 in 5.0 mi SSE 11.5 mph 18.4 mph N/A   Overcast
7:15 AM 44.6 °F 37.8 °F 41.0 °F 87% 29.51 in 5.0 mi SSE 15.0 mph 23.0 mph N/A   Overcast
7:35 AM 46.4 °F 40.1 °F 41.0 °F 81% 29.52 in 5.0 mi SSE 15.0 mph 26.5 mph N/A   Haze
7:55 AM 46.4 °F 41.1 °F 41.0 °F 81% 29.52 in 4.0 mi SSE 11.5 mph 16.1 mph N/A   Haze
8:15 AM 46.4 °F 41.5 °F 41.0 °F 81% 29.52 in 4.0 mi South 10.4 mph 23.0 mph N/A   Haze
8:35 AM 46.4 °F 40.1 °F 41.0 °F 81% 29.52 in 4.0 mi SSE 15.0 mph 26.5 mph N/A   Overcast
8:55 AM 46.4 °F 41.9 °F 41.0 °F 81% 29.54 in 1.5 mi SW 9.2 mph 16.1 mph 0.01 in   Overcast
9:15 AM 44.6 °F 39.7 °F 42.8 °F 93% 29.54 in 1.5 mi South 9.2 mph - N/A Rain Light Rain
9:35 AM 44.6 °F 43.1 °F 42.8 °F 93% 29.54 in 2.5 mi SSW 3.5 mph - N/A   Mostly Cloudy
9:55 AM 46.4 °F 42.4 °F 42.8 °F 87% 29.54 in 4.0 mi SW 8.1 mph - N/A   Overcast
10:15 AM 46.4 °F 42.4 °F 44.6 °F 93% 29.54 in 1.8 mi SSW 8.1 mph - N/A   Overcast
10:35 AM 46.4 °F 42.9 °F 44.6 °F 93% 29.55 in 2.0 mi SSW 6.9 mph - N/A   Mostly Cloudy
10:55 AM 46.4 °F 42.4 °F 44.6 °F 93% 29.56 in 1.0 mi SW 8.1 mph 17.3 mph N/A   Mostly Cloudy
11:15 AM 46.4 °F 41.5 °F 44.6 °F 93% 29.57 in 0.8 mi SSW 10.4 mph 24.2 mph 0.01 in Rain Light Rain
11:35 AM 46.4 °F 42.9 °F 44.6 °F 93% 29.58 in 2.0 mi SW 6.9 mph 17.3 mph 0.01 in   Mostly Cloudy
11:55 AM 46.4 °F 43.5 °F 44.6 °F 93% 29.58 in 3.0 mi SW 5.8 mph - 0.01 in   Overcast
12:15 PM 46.4 °F 42.9 °F 44.6 °F 93% 29.58 in 3.0 mi SW 6.9 mph - N/A   Overcast
12:35 PM 48.2 °F - 41.0 °F 76% 29.57 in 3.0 mi WSW 10.4 mph - N/A   Haze
12:55 PM 48.2 °F - 37.4 °F 66% 29.57 in 4.0 mi SW 11.5 mph 25.3 mph N/A   Haze
1:15 PM 48.2 °F - 35.6 °F 62% 29.56 in 5.0 mi SW 16.1 mph 25.3 mph N/A   Haze
1:35 PM 48.2 °F - 35.6 °F 62% 29.57 in 4.0 mi WSW 15.0 mph 21.9 mph N/A   Haze
1:55 PM 48.2 °F - 35.6 °F 62% 29.58 in 5.0 mi SW 11.5 mph 23.0 mph N/A   Haze
2:15 PM 48.2 °F - 35.6 °F 62% 29.59 in 4.0 mi SW 13.8 mph 26.5 mph N/A   Haze
2:35 PM 48.2 °F - 35.6 °F 62% 29.60 in 4.0 mi SW 12.7 mph 24.2 mph N/A   Haze
2:55 PM 48.2 °F - 35.6 °F 62% 29.61 in 4.0 mi WSW 18.4 mph 25.3 mph N/A   Haze
3:15 PM 46.4 °F 40.7 °F 33.8 °F 62% 29.62 in 4.0 mi WSW 12.7 mph 23.0 mph N/A   Haze
3:35 PM 46.4 °F 40.4 °F 33.8 °F 62% 29.63 in 5.0 mi WSW 13.8 mph 24.2 mph N/A   Haze
3:55 PM 46.4 °F 39.2 °F 33.8 °F 62% 29.64 in 4.0 mi WSW 18.4 mph 28.8 mph N/A   Haze
4:15 PM 46.4 °F 42.4 °F 33.8 °F 62% 29.65 in 4.0 mi WSW 8.1 mph 21.9 mph N/A   Haze
4:35 PM 46.4 °F 41.9 °F 33.8 °F 62% 29.65 in 4.0 mi SW 9.2 mph 18.4 mph N/A Thunderstorm Haze
4:55 PM 46.4 °F 40.7 °F 33.8 °F 62% 29.65 in 4.0 mi SW 12.7 mph 21.9 mph N/A   Haze
5:15 PM 44.6 °F 38.1 °F 35.6 °F 71% 29.66 in 2.0 mi WSW 13.8 mph 20.7 mph N/A Rain Light Rain
5:35 PM 44.6 °F 37.8 °F 33.8 °F 66% 29.68 in 4.0 mi WSW 15.0 mph 28.8 mph N/A   Haze
5:55 PM 44.6 °F 37.2 °F 33.8 °F 66% 29.68 in 5.0 mi West 17.3 mph 23.0 mph N/A   Haze
6:15 PM 44.6 °F 38.1 °F 33.8 °F 66% 29.69 in 5.0 mi WSW 13.8 mph 18.4 mph N/A   Haze
6:35 PM 44.6 °F 41.4 °F 35.6 °F 71% 29.70 in 4.0 mi WSW 5.8 mph 20.7 mph N/A   Haze
6:55 PM 44.6 °F 40.2 °F 35.6 °F 71% 29.72 in 5.0 mi SW 8.1 mph 23.0 mph N/A   Haze
7:15 PM 42.8 °F 37.5 °F 35.6 °F 76% 29.72 in 3.0 mi WSW 9.2 mph - N/A Rain Light Rain
7:35 PM 44.6 °F 40.7 °F 35.6 °F 71% 29.73 in 3.0 mi WSW 6.9 mph 16.1 mph N/A   Haze
7:55 PM 41.0 °F 32.8 °F 35.6 °F 81% 29.75 in 2.0 mi West 16.1 mph 27.6 mph N/A Rain Light Rain
8:15 PM 41.0 °F 34.7 °F 35.6 °F 81% 29.76 in 5.0 mi West 10.4 mph - N/A   Haze
8:35 PM 41.0 °F 36.4 °F 35.6 °F 81% 29.76 in 5.0 mi WSW 6.9 mph - N/A   Haze
8:55 PM 41.0 °F 35.8 °F 35.6 °F 81% 29.77 in 5.0 mi WSW 8.1 mph - N/A   Haze
9:15 PM 42.8 °F 37.0 °F 33.8 °F 70% 29.78 in 5.0 mi WSW 10.4 mph 16.1 mph N/A   Haze
9:35 PM 42.8 °F 36.6 °F 32.0 °F 66% 29.78 in 5.0 mi WSW 11.5 mph 16.1 mph N/A   Haze
9:55 PM 42.8 °F 36.2 °F 32.0 °F 66% 29.78 in 5.0 mi West 12.7 mph 18.4 mph N/A   Haze
10:15 PM 41.0 °F 36.4 °F 33.8 °F 76% 29.78 in 3.0 mi WSW 6.9 mph - N/A   Haze
10:55 PM 41.0 °F 33.5 °F 33.8 °F 76% 29.79 in 4.0 mi WSW 13.8 mph 25.3 mph N/A Rain Light Rain
11:15 PM 41.0 °F 33.9 °F 33.8 °F 76% 29.80 in 5.0 mi West 12.7 mph 20.7 mph N/A   Haze
11:35 PM 41.0 °F 34.3 °F 33.8 °F 76% 29.81 in 5.0 mi WSW 11.5 mph 19.6 mph N/A   Haze
11:55 PM 41.0 °F 34.7 °F 32.0 °F 70% 29.81 in 5.0 mi West 10.4 mph - N/A   Haze